SCP
0 0 0 0 0 0 0 0 0 0 0 0 0 0 0 0 0 0 0 0 0 0 -0 -0 0 0 0 0 0 0 0 0 0 0 0 0 0 0 0 0 0 0 0 0 0
0 0 0 0 0 0 0 0 0 0 0 0 0 0 0 -0 0 0 0 0 0 0 0 0 0 0 0 0 0 0 0 0 0 0 0 0 0 0 0 0 0 0 0 0 0
0 0 0 0 0 0 0 0 0 0 0 0 0 0 0 -0 0 0 0 0 0 0 0 -0 0 0 0 0 0 0 0 -0 0 0 0 0 0 0 0 0 0 0 0 0 0
0 0 0 0 0 0 0 0 0 0 0 0 0 0 0 0 0 0 0 0 0 0 -0 0 0 0 0 0 -0 0 -0 0 0 0 0 0 0 0 0 0 0 0 -0 0 0
0 0 0 0 0 0 0 0 0 0 0 0 0 0 0 0 0 0 0 0 0 0 0 0 0 0 0 -0 0 0 -0 -0 -0 -0 0 0 0 0 0 0 0 -0 0 0 0
0 0 0 0 0 0 0 0 0 0 0 0 0 0 0 0 0 0 0 0 0 0 0 0 0 0 0 -0 -0 -0 -0 -0 -0 0 0 0 0 0 0 0 -0 -0 -0 -0 0
0 0 0 0 0 0 0 0 0 0 0 0 0 0 0 0 0 0 0 0 0 0 0 -0 -0 -0 0 0 -0 -0 -0 0 -0 -0 0 0 0 0 0 0 0 0 -0 -0 -0
0 0 0 0 0 0 0 0 0 0 0 0 0 0 0 0 0 0 0 0 0 0 0 0 0 0 -0 0 -0 -0 -0 0 0 -0 0 0 0 0 0 -0 -0 -0 0 0 0
0 0 0 0 0 0 0 0 0 0 0 0 0 0 0 0 0 0 0 0 0 0 0 0 0 0 0 0 0 0 0 0 0 0 0 0 0 0 0 0 0 0 0 0 0
0 0 0 0 0 0 0 0 0 0 0 0 0 0 0 0 0 0 0 0 0 0 0 0 0 0 0 0 0 0 0 0 0 0 0 0 0 0 0 0 0 0 0 0 0
0 0 0 0 0 0 0 0 0 0 0 0 0 0 0 0 0 0 0 -0 0 0 0 0 0 0 0 0 0 0 0 0 0 0 0 0 0 0 0 0 0 0 0 0 -0
0 0 0 0 0 0 0 0 0 0 0 0 0 0 0 0 0 0 -0 0 0 0 0 0 0 0 0 0 0 0 0 0 0 0 0 0 0 0 0 0 0 0 0 0 -0
0 0 0 0 0 0 0 0 0 0 0 0 0 0 0 0 0 0 -0 0 0 0 0 0 0 0 0 0 0 0 0 0 0 0 0 0 0 -0 0 0 0 0 0 0 0
0 0 0 0 0 0 0 0 0 0 0 0 0 0 0 0 0 -0 0 -0 0 0 0 0 0 0 0 0 0 0 0 0 0 0 0 0 0 0 0 -0 -0 -0 0 0 0
0 0 0 0 0 0 0 0 0 0 0 0 0 0 0 0 -0 0 0 -0 0 0 0 0 0 0 0 0 0 0 0 0 0 0 0 0 0 0 0 -0 -0 -0 -0 -0 0
0 0 0 0 0 0 0 0 0 0 0 0 0 0 0 0 0 -0 -0 -0 0 0 0 0 0 0 0 0 0 0 0 0 0 0 0 0 0 0 0 -0 -0 0 0 -0 0
0 0 0 0 0 0 0 0 0 0 0 0 0 0 0 0 0 0 0 -0 0 0 0 0 0 0 0 0 0 0 0 0 0 0 0 0 0 0 0 0 0 0 0 0 0
0 0 0 0 0 0 0 0 0 0 0 0 0 0 0 0 0 0 0 0 0 0 0 0 0 0 0 0 0 0 0 0 0 0 0 0 0 0 0 0 0 0 0 0 0
0 0 0 0 0 0 0 0 0 0 0 0 0 0 0 0 0 0 0 0 0 0 0 0 0 0 0 0 0 0 0 0 0 0 0 0 0 0 0 0 0 0 0 0 0
0 0 0 0 0 0 0 0 0 0 0 0 0 0 0 0 0 0 -0 0 0 0 0 0 0 0 0 0 0 0 0 0 0 0 0 0 0 0 0 0 0 0 0 0 0
0 0 0 0 0 0 0 0 0 0 0 0 0 0 0 0 0 0 0 0 0 0 0 0 0 0 0 0 0 0 0 0 0 0 0 0 0 0 0 -0 -0 -0 0 0 0
0 0 0 0 0 0 0 0 0 0 0 0 0 0 0 0 0 0 0 0 0 0 0 0 0 0 0 0 0 0 0 0 0 0 0 0 0 0 -0 0 -0 -0 0 0 0
0 0 0 0 0 0 0 0 0 0 0 0 0 0 0 0 0 0 0 0 0 0 0 0 0 0 0 0 0 0 0 0 0 0 0 0 0 0 -0 0 -0 -0 -0 -0 0
0 0 0 0 0 0 0 0 0 0 0 0 0 0 0 0 0 0 0 0 0 0 0 0 0 0 0 0 0 0 0 0 0 0 0 0 0 0 0 -0 -0 -0 -0 -0 0
0 0 0 0 0 0 0 0 0 0 0 0 0 0 0 0 0 0 0 0 0 0 0 0 0 0 0 0 0 0 0 0 -0 0 -0 0 0 0 -0 -0 -0 -0 -0 -0 -0
0 0 0 0 0 0 0 0 0 0 0 0 0 0 0 0 0 0 0 0 0 0 0 0 0 0 0 0 0 0 0 0 -0 -0 -0 -0 -0 -0 -0 -0 -0 -0 -0 -0 -0
0 0 0 0 0 0 0 0 0 0 0 0 0 0 0 0 0 0 0 0 0 0 0 0 0 0 0 0 0 0 0 0 0 0 -0 -0 0 0 0 -0 -0 -0 -0 -0 -0
Wind_Speed_500mb
9 10 10 10 11 13 13 14 14 13 13 13 11 9 2 10 35 23 35 37 39 28 20 21 13 15 21 25 21 9 7 11 11 14 18 26 24 22 29 41 37 34 47 58 57
11 11 11 10 10 12 13 14 13 12 12 11 10 8 3 5 14 40 35 31 36 27 21 11 23 21 17 14 14 13 8 6 4 12 18 33 27 33 22 42 45 53 48 46 53
11 11 11 10 9 11 12 13 13 12 12 10 8 9 6 6 8 22 28 32 40 31 25 15 14 23 20 19 17 12 9 6 6 17 21 23 31 18 26 24 43 61 81 68 58
12 11 9 9 8 10 11 10 11 11 10 8 6 11 14 7 3 12 22 27 35 34 19 20 11 12 13 13 8 14 9 5 13 18 12 13 32 24 18 38 60 69 71 68 54
12 11 9 8 8 9 11 11 9 9 7 7 6 7 8 18 14 13 18 24 27 32 29 26 27 15 14 15 14 18 10 3 16 19 3 27 15 15 19 49 50 41 30 28 33
13 11 9 8 7 8 9 9 8 6 5 6 7 8 8 12 14 15 13 19 24 33 39 36 26 35 25 10 6 7 5 4 13 26 3 24 9 16 45 59 46 37 37 20 18
14 10 9 7 7 7 8 7 6 4 4 9 19 26 24 15 14 14 11 14 22 24 32 35 26 7 18 13 7 6 3 1 16 30 10 28 7 32 47 49 34 40 40 33 30
15 12 9 7 6 6 6 5 2 3 5 8 11 8 13 15 15 11 9 11 15 20 19 24 23 31 12 20 8 4 2 9 12 32 14 16 17 32 48 46 43 48 42 41 24
16 14 10 8 7 6 5 1 3 7 8 11 10 10 10 11 7 11 11 9 10 12 18 16 15 15 8 8 7 13 8 7 5 12 13 21 15 37 38 36 40 46 46 40 37
18 15 11 9 7 5 2 4 8 9 12 15 13 11 8 4 7 9 7 10 9 5 6 8 9 7 11 1 7 4 4 2 7 14 14 20 23 24 34 37 35 32 46 48 66
19 14 11 9 6 4 5 10 8 5 14 14 9 15 10 11 14 10 6 7 7 13 6 9 8 13 11 12 8 10 2 6 5 6 11 12 16 23 32 36 43 51 63 67 65
21 16 12 9 7 5 7 6 7 15 21 17 16 16 12 7 5 13 7 4 6 8 2 4 9 8 14 10 5 5 4 3 9 10 6 11 10 16 22 31 34 47 54 64 76
23 18 15 12 10 7 9 9 15 18 9 8 11 8 5 6 7 12 8 6 7 7 9 6 7 14 3 6 6 6 4 3 6 7 3 15 5 12 23 29 42 51 55 66 61
25 20 17 12 9 13 12 16 16 12 6 4 2 5 5 6 5 11 8 4 5 7 6 8 6 4 3 4 4 4 7 6 7 9 5 7 6 5 18 21 40 47 51 58 61
26 23 19 20 8 16 14 17 15 9 2 3 3 2 7 4 5 5 11 3 6 7 5 5 6 2 3 3 2 6 3 14 10 7 5 4 8 6 11 14 20 33 35 37 42
30 27 22 19 17 16 20 19 17 8 8 4 1 2 3 8 4 4 4 8 8 5 2 5 1 1 6 5 8 10 3 5 3 4 3 5 6 6 7 6 8 19 23 26 28
34 31 27 22 18 21 21 20 7 5 4 5 3 3 5 4 3 8 5 7 1 5 5 1 3 2 3 7 8 7 5 3 3 0 5 2 5 3 2 4 6 11 15 18 21
36 36 31 25 25 27 26 6 5 2 9 2 4 6 4 2 4 6 4 4 5 0 5 2 2 4 6 6 6 9 7 5 8 8 6 4 3 3 4 8 7 5 8 12 16
40 36 31 29 27 28 13 5 9 10 11 19 8 5 1 3 1 2 4 2 1 4 1 5 4 3 3 3 5 5 5 3 5 3 5 2 5 6 10 14 16 11 3 4 8
45 36 31 30 27 24 5 5 5 4 9 4 5 1 6 2 1 2 2 2 3 4 7 5 3 2 2 3 3 4 3 2 2 7 6 2 7 2 23 24 18 16 12 8 7
44 20 31 32 26 10 6 8 5 9 6 5 9 8 4 7 2 4 3 2 3 3 2 5 4 4 4 1 1 4 3 4 1 3 5 8 3 3 16 27 26 24 18 13 12
38 7 36 38 7 1 6 11 10 9 7 4 6 7 7 9 6 5 4 4 3 3 2 2 2 2 3 3 3 2 2 2 3 4 2 3 8 5 7 20 30 28 26 23 19
33 13 32 37 7 5 4 7 5 7 9 7 7 3 3 7 6 3 3 2 3 2 1 5 1 3 3 2 2 7 7 5 5 2 11 4 3 1 10 15 30 32 31 29 27
28 8 10 22 9 11 12 7 9 5 7 4 9 7 7 7 0 11 8 2 3 3 3 2 1 5 6 5 5 7 11 16 11 7 7 16 14 9 13 21 32 34 35 36 36
25 11 19 12 12 9 5 13 12 12 2 6 2 6 11 8 3 7 3 5 3 3 5 3 4 4 14 14 9 17 21 24 30 26 18 6 19 13 24 30 48 42 37 37 43
29 17 15 9 31 17 7 15 19 12 16 10 8 21 13 11 7 14 15 10 5 4 6 3 2 2 9 4 7 17 31 34 38 37 40 39 57 35 39 27 37 47 47 50 53
37 36 28 19 14 10 11 16 19 29 9 7 20 14 13 10 9 16 17 20 24 17 10 4 8 1 8 8 15 16 16 31 16 18 36 28 26 18 15 39 49 58 63 70 68
Wind_Direction_500mb
282 293 305 318 326 331 335 340 350 4 10 13 21 21 97 62 38 65 48 32 22 29 40 53 68 73 69 62 53 52 64 54 20 352 321 337 334 327 313 296 305 292 285 292 299
273 284 297 309 322 329 333 339 348 2 6 12 22 30 68 140 53 55 50 36 26 25 36 86 72 78 63 38 30 42 69 73 325 306 293 309 314 315 312 318 316 311 301 293 297
264 277 289 304 322 325 328 339 346 359 3 13 33 45 98 121 76 32 48 42 32 27 34 74 85 81 67 52 20 36 80 167 359 321 305 294 308 312 302 303 318 308 302 296 293
255 265 275 295 313 318 323 337 344 355 4 30 54 85 68 128 99 47 49 40 35 31 55 69 82 68 71 70 38 101 114 62 344 330 321 323 319 320 308 301 309 301 288 282 283
242 252 268 286 306 315 322 331 346 356 16 43 84 128 110 79 76 66 50 41 41 45 60 74 73 91 94 106 90 90 167 256 341 328 231 336 358 318 308 320 324 336 326 291 281
235 241 257 278 296 313 318 328 346 5 31 72 111 117 124 82 81 60 64 44 47 50 57 64 92 104 95 85 58 123 171 284 337 354 53 329 260 324 332 336 333 350 344 329 330
226 235 251 273 293 304 313 332 349 16 57 110 107 100 98 98 70 62 78 60 53 55 59 67 73 104 122 115 113 97 132 210 2 355 1 343 318 348 338 336 330 344 337 337 345
220 225 234 255 279 296 309 327 18 62 92 133 140 112 88 96 71 61 92 75 57 52 60 70 80 74 63 120 66 38 93 16 10 1 359 341 329 341 340 339 353 352 343 335 357
218 221 223 243 268 283 295 336 97 106 108 119 134 128 105 103 74 60 78 87 69 65 58 63 65 76 87 124 101 25 43 4 351 23 12 19 323 315 340 351 359 350 331 343 26
215 218 221 240 253 264 251 130 118 113 108 106 105 112 107 93 73 36 92 76 77 96 41 38 59 86 48 71 78 83 355 311 329 349 335 10 351 343 357 5 353 342 346 14 38
212 214 228 235 247 249 176 133 142 80 83 84 77 95 99 113 68 32 105 88 70 57 59 20 70 61 81 60 83 109 138 289 277 336 320 356 347 342 356 7 358 2 6 15 29
212 208 214 218 220 224 204 208 205 146 92 76 86 89 78 118 92 37 64 80 58 75 342 109 76 96 119 131 126 151 164 264 288 309 328 350 332 332 0 9 15 10 6 16 30
207 207 206 205 202 201 196 175 152 139 84 54 68 74 64 88 70 13 46 83 84 81 44 93 89 144 209 192 253 199 229 227 290 322 259 313 251 1 10 15 19 18 19 34 26
202 203 200 198 209 186 163 158 162 165 93 28 37 35 25 116 65 33 29 82 82 121 120 78 132 181 258 284 287 287 201 247 271 282 12 8 337 7 5 359 17 16 20 20 34
200 197 192 193 207 185 173 160 158 143 211 70 43 36 46 83 132 10 37 52 100 121 220 116 169 174 275 7 263 345 289 273 258 264 226 44 272 13 9 6 13 2 11 19 27
195 191 191 192 198 191 165 151 139 57 240 134 323 44 121 27 25 345 82 78 107 117 45 83 33 318 344 292 224 305 253 137 175 217 191 13 298 13 356 324 331 346 9 15 19
190 187 184 185 192 174 161 146 69 176 33 201 158 104 93 29 56 13 41 37 24 116 26 33 113 83 333 302 173 301 259 258 207 208 42 62 243 26 259 292 272 345 354 8 13
189 183 182 187 176 168 157 75 170 35 200 140 143 106 139 13 46 24 110 112 51 306 116 88 121 21 10 26 327 351 354 23 323 339 351 220 247 156 226 196 272 305 330 16 19
183 176 179 181 175 170 169 124 207 190 149 152 114 127 104 143 256 129 37 75 328 305 359 153 145 103 42 347 319 26 39 357 106 66 275 303 215 197 225 222 223 236 244 31 57
176 171 177 180 173 169 107 220 131 161 121 148 114 293 149 98 113 43 209 176 163 287 324 166 119 22 61 196 99 349 108 249 7 348 309 245 280 340 205 216 221 225 196 174 141
171 159 177 173 164 191 178 162 180 183 148 152 140 130 109 136 163 148 154 196 238 162 26 158 274 135 237 38 122 158 171 90 61 343 323 315 185 217 205 194 200 207 206 188 170
171 138 169 166 151 320 167 152 137 176 154 143 103 117 140 166 137 166 173 10 143 165 128 69 304 202 90 143 275 244 217 235 253 150 155 298 278 167 231 194 194 195 199 186 181
164 117 168 173 169 169 171 111 128 160 185 159 127 116 119 124 121 122 155 22 163 152 184 175 280 298 160 175 216 231 182 158 123 166 208 209 265 179 262 222 198 194 196 192 187
157 124 152 198 234 154 150 143 142 169 140 132 118 116 122 119 333 163 158 137 148 103 52 334 123 273 296 20 84 210 199 202 196 197 209 227 274 213 230 219 201 200 203 197 193
174 183 168 172 225 191 112 134 142 157 151 181 74 198 154 124 144 164 147 133 56 100 47 21 260 300 278 278 267 257 245 207 210 217 231 201 237 240 212 212 210 204 196 198 201
162 156 136 126 147 139 198 205 163 168 148 196 206 177 179 148 178 180 153 182 167 137 160 60 256 319 283 336 265 269 253 235 238 241 250 259 272 251 238 210 207 204 201 204 204
191 162 164 155 152 155 194 168 195 140 190 152 161 129 185 190 137 119 120 125 146 153 154 141 143 283 273 336 313 273 232 201 198 228 223 226 239 213 180 208 206 204 203 206 206
Wind_Speed_850mb
9 10 10 10 11 13 13 14 14 13 13 13 11 9 2 10 35 23 35 37 39 28 20 21 13 15 21 25 21 9 7 11 11 14 18 26 24 22 29 41 37 34 47 58 57
11 11 11 10 10 12 13 14 13 12 12 11 10 8 3 5 14 40 35 31 36 27 21 11 23 21 17 14 14 13 8 6 4 12 18 33 27 33 22 42 45 53 48 46 53
11 11 11 10 9 11 12 13 13 12 12 10 8 9 6 6 8 22 28 32 40 31 25 15 14 23 20 19 17 12 9 6 6 17 21 23 31 18 26 24 43 61 81 68 58
12 11 9 9 8 10 11 10 11 11 10 8 6 11 14 7 3 12 22 27 35 34 19 20 11 12 13 13 8 14 9 5 13 18 12 13 32 24 18 38 60 69 71 68 54
12 11 9 8 8 9 11 11 9 9 7 7 6 7 8 18 14 13 18 24 27 32 29 26 27 15 14 15 14 18 10 3 16 19 3 27 15 15 19 49 50 41 30 28 33
13 11 9 8 7 8 9 9 8 6 5 6 7 8 8 12 14 15 13 19 24 33 39 36 26 35 25 10 6 7 5 4 13 26 3 24 9 16 45 59 46 37 37 20 18
14 10 9 7 7 7 8 7 6 4 4 9 19 26 24 15 14 14 11 14 22 24 32 35 26 7 18 13 7 6 3 1 16 30 10 28 7 32 47 49 34 40 40 33 30
15 12 9 7 6 6 6 5 2 3 5 8 11 8 13 15 15 11 9 11 15 20 19 24 23 31 12 20 8 4 2 9 12 32 14 16 17 32 48 46 43 48 42 41 24
16 14 10 8 7 6 5 1 3 7 8 11 10 10 10 11 7 11 11 9 10 12 18 16 15 15 8 8 7 13 8 7 5 12 13 21 15 37 38 36 40 46 46 40 37
18 15 11 9 7 5 2 4 8 9 12 15 13 11 8 4 7 9 7 10 9 5 6 8 9 7 11 1 7 4 4 2 7 14 14 20 23 24 34 37 35 32 46 48 66
19 14 11 9 6 4 5 10 8 5 14 14 9 15 10 11 14 10 6 7 7 13 6 9 8 13 11 12 8 10 2 6 5 6 11 12 16 23 32 36 43 51 63 67 65
21 16 12 9 7 5 7 6 7 15 21 17 16 16 12 7 5 13 7 4 6 8 2 4 9 8 14 10 5 5 4 3 9 10 6 11 10 16 22 31 34 47 54 64 76
23 18 15 12 10 7 9 9 15 18 9 8 11 8 5 6 7 12 8 6 7 7 9 6 7 14 3 6 6 6 4 3 6 7 3 15 5 12 23 29 42 51 55 66 61
25 20 17 12 9 13 12 16 16 12 6 4 2 5 5 6 5 11 8 4 5 7 6 8 6 4 3 4 4 4 7 6 7 9 5 7 6 5 18 21 40 47 51 58 61
26 23 19 20 8 16 14 17 15 9 2 3 3 2 7 4 5 5 11 3 6 7 5 5 6 2 3 3 2 6 3 14 10 7 5 4 8 6 11 14 20 33 35 37 42
30 27 22 19 17 16 20 19 17 8 8 4 1 2 3 8 4 4 4 8 8 5 2 5 1 1 6 5 8 10 3 5 3 4 3 5 6 6 7 6 8 19 23 26 28
34 31 27 22 18 21 21 20 7 5 4 5 3 3 5 4 3 8 5 7 1 5 5 1 3 2 3 7 8 7 5 3 3 0 5 2 5 3 2 4 6 11 15 18 21
36 36 31 25 25 27 26 6 5 2 9 2 4 6 4 2 4 6 4 4 5 0 5 2 2 4 6 6 6 9 7 5 8 8 6 4 3 3 4 8 7 5 8 12 16
40 36 31 29 27 28 13 5 9 10 11 19 8 5 1 3 1 2 4 2 1 4 1 5 4 3 3 3 5 5 5 3 5 3 5 2 5 6 10 14 16 11 3 4 8
45 36 31 30 27 24 5 5 5 4 9 4 5 1 6 2 1 2 2 2 3 4 7 5 3 2 2 3 3 4 3 2 2 7 6 2 7 2 23 24 18 16 12 8 7
44 20 31 32 26 10 6 8 5 9 6 5 9 8 4 7 2 4 3 2 3 3 2 5 4 4 4 1 1 4 3 4 1 3 5 8 3 3 16 27 26 24 18 13 12
38 7 36 38 7 1 6 11 10 9 7 4 6 7 7 9 6 5 4 4 3 3 2 2 2 2 3 3 3 2 2 2 3 4 2 3 8 5 7 20 30 28 26 23 19
33 13 32 37 7 5 4 7 5 7 9 7 7 3 3 7 6 3 3 2 3 2 1 5 1 3 3 2 2 7 7 5 5 2 11 4 3 1 10 15 30 32 31 29 27
28 8 10 22 9 11 12 7 9 5 7 4 9 7 7 7 0 11 8 2 3 3 3 2 1 5 6 5 5 7 11 16 11 7 7 16 14 9 13 21 32 34 35 36 36
25 11 19 12 12 9 5 13 12 12 2 6 2 6 11 8 3 7 3 5 3 3 5 3 4 4 14 14 9 17 21 24 30 26 18 6 19 13 24 30 48 42 37 37 43
29 17 15 9 31 17 7 15 19 12 16 10 8 21 13 11 7 14 15 10 5 4 6 3 2 2 9 4 7 17 31 34 38 37 40 39 57 35 39 27 37 47 47 50 53
37 36 28 19 14 10 11 16 19 29 9 7 20 14 13 10 9 16 17 20 24 17 10 4 8 1 8 8 15 16 16 31 16 18 36 28 26 18 15 39 49 58 63 70 68
Wind_Direction_850mb
282 293 305 318 326 331 335 340 350 4 10 13 21 21 97 62 38 65 48 32 22 29 40 53 68 73 69 62 53 52 64 54 20 352 321 337 334 327 313 296 305 292 285 292 299
273 284 297 309 322 329 333 339 348 2 6 12 22 30 68 140 53 55 50 36 26 25 36 86 72 78 63 38 30 42 69 73 325 306 293 309 314 315 312 318 316 311 301 293 297
264 277 289 304 322 325 328 339 346 359 3 13 33 45 98 121 76 32 48 42 32 27 34 74 85 81 67 52 20 36 80 167 359 321 305 294 308 312 302 303 318 308 302 296 293
255 265 275 295 313 318 323 337 344 355 4 30 54 85 68 128 99 47 49 40 35 31 55 69 82 68 71 70 38 101 114 62 344 330 321 323 319 320 308 301 309 301 288 282 283
242 252 268 286 306 315 322 331 346 356 16 43 84 128 110 79 76 66 50 41 41 45 60 74 73 91 94 106 90 90 167 256 341 328 231 336 358 318 308 320 324 336 326 291 281
235 241 257 278 296 313 318 328 346 5 31 72 111 117 124 82 81 60 64 44 47 50 57 64 92 104 95 85 58 123 171 284 337 354 53 329 260 324 332 336 333 350 344 329 330
226 235 251 273 293 304 313 332 349 16 57 110 107 100 98 98 70 62 78 60 53 55 59 67 73 104 122 115 113 97 132 210 2 355 1 343 318 348 338 336 330 344 337 337 345
220 225 234 255 279 296 309 327 18 62 92 133 140 112 88 96 71 61 92 75 57 52 60 70 80 74 63 120 66 38 93 16 10 1 359 341 329 341 340 339 353 352 343 335 357
218 221 223 243 268 283 295 336 97 106 108 119 134 128 105 103 74 60 78 87 69 65 58 63 65 76 87 124 101 25 43 4 351 23 12 19 323 315 340 351 359 350 331 343 26
215 218 221 240 253 264 251 130 118 113 108 106 105 112 107 93 73 36 92 76 77 96 41 38 59 86 48 71 78 83 355 311 329 349 335 10 351 343 357 5 353 342 346 14 38
212 214 228 235 247 249 176 133 142 80 83 84 77 95 99 113 68 32 105 88 70 57 59 20 70 61 81 60 83 109 138 289 277 336 320 356 347 342 356 7 358 2 6 15 29
212 208 214 218 220 224 204 208 205 146 92 76 86 89 78 118 92 37 64 80 58 75 342 109 76 96 119 131 126 151 164 264 288 309 328 350 332 332 0 9 15 10 6 16 30
207 207 206 205 202 201 196 175 152 139 84 54 68 74 64 88 70 13 46 83 84 81 44 93 89 144 209 192 253 199 229 227 290 322 259 313 251 1 10 15 19 18 19 34 26
202 203 200 198 209 186 163 158 162 165 93 28 37 35 25 116 65 33 29 82 82 121 120 78 132 181 258 284 287 287 201 247 271 282 12 8 337 7 5 359 17 16 20 20 34
200 197 192 193 207 185 173 160 158 143 211 70 43 36 46 83 132 10 37 52 100 121 220 116 169 174 275 7 263 345 289 273 258 264 226 44 272 13 9 6 13 2 11 19 27
195 191 191 192 198 191 165 151 139 57 240 134 323 44 121 27 25 345 82 78 107 117 45 83 33 318 344 292 224 305 253 137 175 217 191 13 298 13 356 324 331 346 9 15 19
190 187 184 185 192 174 161 146 69 176 33 201 158 104 93 29 56 13 41 37 24 116 26 33 113 83 333 302 173 301 259 258 207 208 42 62 243 26 259 292 272 345 354 8 13
189 183 182 187 176 168 157 75 170 35 200 140 143 106 139 13 46 24 110 112 51 306 116 88 121 21 10 26 327 351 354 23 323 339 351 220 247 156 226 196 272 305 330 16 19
183 176 179 181 175 170 169 124 207 190 149 152 114 127 104 143 256 129 37 75 328 305 359 153 145 103 42 347 319 26 39 357 106 66 275 303 215 197 225 222 223 236 244 31 57
176 171 177 180 173 169 107 220 131 161 121 148 114 293 149 98 113 43 209 176 163 287 324 166 119 22 61 196 99 349 108 249 7 348 309 245 280 340 205 216 221 225 196 174 141
171 159 177 173 164 191 178 162 180 183 148 152 140 130 109 136 163 148 154 196 238 162 26 158 274 135 237 38 122 158 171 90 61 343 323 315 185 217 205 194 200 207 206 188 170
171 138 169 166 151 320 167 152 137 176 154 143 103 117 140 166 137 166 173 10 143 165 128 69 304 202 90 143 275 244 217 235 253 150 155 298 278 167 231 194 194 195 199 186 181
164 117 168 173 169 169 171 111 128 160 185 159 127 116 119 124 121 122 155 22 163 152 184 175 280 298 160 175 216 231 182 158 123 166 208 209 265 179 262 222 198 194 196 192 187
157 124 152 198 234 154 150 143 142 169 140 132 118 116 122 119 333 163 158 137 148 103 52 334 123 273 296 20 84 210 199 202 196 197 209 227 274 213 230 219 201 200 203 197 193
174 183 168 172 225 191 112 134 142 157 151 181 74 198 154 124 144 164 147 133 56 100 47 21 260 300 278 278 267 257 245 207 210 217 231 201 237 240 212 212 210 204 196 198 201
162 156 136 126 147 139 198 205 163 168 148 196 206 177 179 148 178 180 153 182 167 137 160 60 256 319 283 336 265 269 253 235 238 241 250 259 272 251 238 210 207 204 201 204 204
191 162 164 155 152 155 194 168 195 140 190 152 161 129 185 190 137 119 120 125 146 153 154 141 143 283 273 336 313 273 232 201 198 228 223 226 239 213 180 208 206 204 203 206 206